EW7144 Weather Reports


Display with metric or nautical units.
time (UTC)temp
F
wind
direction
speed
MPH
gust
MPH
rain 1hr
in
rain 24hr
in
rain mn
in
humidity
%
barometer
mb
20260504020906 61 331 4.0 12.0 0.00 0.03 0.01 76 1032.1
20260504020406 61 322 7.0 17.0 0.00 0.03 0.01 76 1032.2
20260504015906 61 288 5.0 17.0 0.00 0.03 0.01 76 1032.1
20260504015407 61 301 8.0 16.0 0.00 0.03 0.01 76 1032.3
20260504014905 61 337 6.0 17.0 0.00 0.03 0.01 76 1032.3
20260504013906 61 322 8.0 21.0 0.00 0.03 0.01 76 1032.4
20260504013406 61 321 6.0 15.0 0.00 0.03 0.01 76 1032.5
20260504012906 61 329 7.0 18.0 0.00 0.03 0.01 76 1032.5
20260504011905 61 334 6.0 17.0 0.00 0.03 0.01 76 1032.5
20260504011407 61 313 6.0 20.0 0.00 0.03 0.01 76 1032.6
20260504010906 61 327 5.0 15.0 0.00 0.03 0.01 76 1032.6
20260504010405 61 347 7.0 18.0 0.00 0.03 0.01 75 1032.6
20260504005906 61 330 6.0 13.0 0.00 0.03 0.01 76 1032.7
20260504005406 61 337 5.0 13.0 0.00 0.03 0.01 76 1032.8
20260504004906 61 324 6.0 12.0 0.01 0.03 0.01 76 1032.8
20260504004405 61 295 5.0 12.0 0.01 0.03 0.01 75 1032.8
20260504003907 61 319 5.0 10.0 0.01 0.03 0.01 75 1032.9
20260504003405 61 322 5.0 12.0 0.01 0.03 0.01 74 1033.1
20260504002905 61 283 4.0 10.0 0.01 0.03 0.01 74 1033.2
20260504001906 61 324 4.0 9.0 0.01 0.03 0.01 74 1033.4
20260504001405 61 326 3.0 6.0 0.01 0.03 0.01 73 1033.4
20260504000906 61 334 2.0 5.0 0.01 0.03 0.01 74 1033.4
20260504000405 61 267 1.0 3.0 0.01 0.03 0.01 74 1033.4
20260503235907 61 356 1.0 3.0 0.01 0.03 0.01 74 1033.5
20260503235405 60 343 2.0 5.0 0.01 0.03 0.01 74 1033.6
20260503234406 61 338 2.0 5.0 0.00 0.02 0.00 74 1033.7
20260503233906 61 349 2.0 3.0 0.00 0.02 0.00 75 1033.6
20260503233405 60 345 2.0 3.0 0.00 0.02 0.00 76 1033.6
20260503232405 59 334 2.0 5.0 0.00 0.02 0.00 76 1033.6
20260503231906 59 357 2.0 3.0 0.00 0.02 0.00 75 1033.7
20260503231405 59 335 2.0 3.0 0.00 0.02 0.00 75 1033.7
20260503230405 59 339 2.0 3.0 0.00 0.02 0.00 76 1033.7
20260503225905 59 344 2.0 3.0 0.00 0.02 0.00 77 1033.7
20260503225405 59 355 2.0 3.0 0.00 0.02 0.00 77 1033.7
20260503223905 59 349 2.0 3.0 0.00 0.02 0.00 77 1033.6
20260503223406 60 346 1.0 3.0 0.00 0.02 0.00 77 1033.7
20260503222405 58 4 0.0 1.0 0.00 0.02 0.00 78 1033.7
20260503221906 59 4 1.0 3.0 0.00 0.02 0.00 79 1033.7
20260503221406 59 38 1.0 3.0 0.00 0.02 0.00 79 1033.8
20260503220906 58 12 0.0 2.0 0.00 0.02 0.00 81 1033.7
20260503215904 57 31 1.0 3.0 0.00 0.02 0.00 82 1033.7
20260503215405 56 73 1.0 3.0 0.00 0.02 0.00 82 1033.8
20260503214904 56 35 1.0 3.0 0.00 0.02 0.00 83 1033.8
20260503214404 56 31 0.0 2.0 0.00 0.02 0.00 84 1033.8
20260503213905 55 127 0.0 2.0 0.00 0.02 0.00 84 1033.7
20260503213405 55 132 1.0 2.0 0.00 0.02 0.00 84 1033.7
20260503212904 55 132 0.0 1.0 0.00 0.02 0.00 85 1033.7
20260503212407 54 133 0.0 1.0 0.00 0.02 0.00 85 1033.7
20260503211405 54 133 0.0 1.0 0.00 0.02 0.00 85 1033.7
20260503210906 54 133 0.0 1.0 0.00 0.02 0.00 85 1033.6
20260503210405 54 133 1.0 2.0 0.00 0.02 0.00 86 1033.6
20260503205905 54 135 1.0 2.0 0.00 0.02 0.00 87 1033.6
20260503204904 53 104 1.0 2.0 0.00 0.02 0.00 88 1033.6
20260503204405 53 128 1.0 3.0 0.00 0.02 0.00 88 1033.6
20260503203904 53 93 1.0 2.0 0.00 0.02 0.00 89 1033.6
20260503203404 52 102 0.0 2.0 0.00 0.02 0.00 89 1033.5
20260503202906 52 92 0.0 2.0 0.00 0.02 0.00 89 1033.5
20260503202405 52 101 1.0 3.0 0.00 0.02 0.00 89 1033.4
20260503201905 52 125 0.0 2.0 0.00 0.02 0.00 89 1033.4
20260503201405 52 112 1.0 3.0 0.00 0.02 0.00 89 1033.4
20260503200906 51 122 1.0 3.0 0.00 0.02 0.00 89 1033.4
20260503200405 51 101 1.0 3.0 0.00 0.02 0.00 89 1033.3
20260503195906 51 118 1.0 3.0 0.00 0.02 0.00 89 1033.3
20260503195405 51 106 2.0 3.0 0.00 0.02 0.00 89 1033.1
20260503194406 51 109 2.0 3.0 0.00 0.02 0.00 89 1033.0
20260503193905 51 97 3.0 6.0 0.00 0.02 0.00 89 1033.0
20260503193405 51 93 3.0 7.0 0.00 0.02 0.00 89 1033.0
20260503192907 51 94 3.0 6.0 0.00 0.02 0.00 89 1032.9
20260503192406 51 77 2.0 6.0 0.00 0.02 0.00 90 1032.9
20260503191904 51 86 2.0 3.0 0.00 0.02 0.00 90 1032.9
20260503191405 51 86 2.0 3.0 0.00 0.02 0.00 90 1032.9
20260503190905 51 80 1.0 2.0 0.00 0.02 0.00 90 1032.9
20260503185905 51 83 1.0 2.0 0.00 0.02 0.00 90 1032.8
20260503183906 51 90 2.0 3.0 0.00 0.02 0.00 90 1032.7
20260503183406 51 88 3.0 3.0 0.00 0.02 0.00 90 1032.7
20260503182905 51 101 3.0 6.0 0.00 0.02 0.00 91 1032.7
20260503182405 51 91 2.0 3.0 0.00 0.02 0.00 91 1032.7
20260503181905 51 96 2.0 3.0 0.00 0.02 0.00 91 1032.7
20260503180905 50 104 1.0 3.0 0.00 0.02 0.00 90 1032.7
20260503180405 50 101 2.0 3.0 0.00 0.02 0.00 91 1032.7
20260503175406 49 216 0.0 1.0 0.00 0.02 0.00 90 1032.5
20260503174905 49 216 0.0 1.0 0.00 0.02 0.00 90 1032.5
20260503174406 49 216 0.0 1.0 0.00 0.02 0.00 90 1032.5
20260503173905 50 216 0.0 0.0 0.00 0.02 0.00 90 1032.5
20260503173406 50 216 0.0 1.0 0.00 0.02 0.00 90 1032.5
20260503172905 50 216 0.0 1.0 0.00 0.02 0.00 90 1032.6
20260503172406 50 157 0.0 1.0 0.00 0.02 0.00 90 1032.7
20260503171906 50 157 0.0 1.0 0.00 0.02 0.00 90 1032.7
20260503171405 50 154 0.0 1.0 0.00 0.02 0.00 90 1032.8
20260503170906 51 154 0.0 1.0 0.00 0.02 0.00 90 1032.8
20260503170405 51 153 0.0 1.0 0.00 0.02 0.00 90 1032.8
20260503150906 51 340 0.0 0.0 0.00 0.02 0.00 90 1033.3
20260503150405 51 341 0.0 0.0 0.00 0.02 0.00 90 1033.4
20260503131406 52 144 0.0 0.0 0.00 0.03 0.00 90 1033.4
20260503130905 52 144 0.0 0.0 0.00 0.03 0.00 90 1033.4
20260503130405 52 144 0.0 1.0 0.00 0.03 0.00 90 1033.5
20260503110405 52 102 0.0 1.0 0.00 0.02 0.02 89 1033.3
20260503090404 52 102 0.0 1.0 0.00 0.02 0.02 88 1032.2
20260503081406 52 102 0.0 0.0 0.00 0.02 0.02 87 1032.1
20260503080404 53 102 0.0 0.0 0.00 0.02 0.02 86 1032.2
20260503072906 54 102 0.0 0.0 0.00 0.02 0.02 85 1032.0
20260503072405 54 102 0.0 1.0 0.00 0.02 0.02 84 1031.9
20260503071904 54 95 0.0 1.0 0.00 0.02 0.02 83 1031.9
20260503070906 55 79 0.0 1.0 0.00 0.02 0.02 83 1032.0
20260503054905 56 359 0.0 2.0 0.01 0.02 0.02 80 1032.0
20260503054404 57 359 0.0 1.0 0.01 0.02 0.02 80 1032.1
20260503053905 57 359 0.0 2.0 0.01 0.02 0.02 80 1032.0
20260503053404 58 348 1.0 2.0 0.01 0.02 0.02 79 1032.1
20260503052905 58 234 1.0 2.0 0.01 0.02 0.02 79 1032.0
20260503052405 59 215 0.0 3.0 0.01 0.02 0.02 79 1032.0
20260503051906 59 190 1.0 3.0 0.01 0.02 0.02 79 1032.0
20260503051405 59 222 0.0 3.0 0.01 0.02 0.02 79 1032.0
20260503045904 60 346 2.0 8.0 0.00 0.01 0.01 78 1032.2
20260503044904 60 317 2.0 5.0 0.00 0.01 0.01 77 1032.3
20260503044404 61 329 3.0 9.0 0.00 0.01 0.01 77 1032.3
20260503043904 61 301 3.0 8.0 0.00 0.01 0.01 76 1032.3
20260503043404 61 345 3.0 6.0 0.00 0.01 0.01 77 1032.3
20260503042904 61 334 2.0 9.0 0.00 0.01 0.01 77 1032.3
20260503042404 61 352 4.0 8.0 0.00 0.01 0.01 76 1032.3
20260503041904 61 302 3.0 6.0 0.00 0.01 0.01 76 1032.4
20260503041404 61 331 3.0 9.0 0.00 0.01 0.01 76 1032.4
20260503040905 61 336 3.0 10.0 0.00 0.01 0.01 76 1032.4
20260503040404 62 344 3.0 9.0 0.00 0.01 0.01 76 1032.4
20260503035904 61 318 5.0 10.0 0.00 0.01 0.01 76 1032.4
20260503034904 62 341 5.0 10.0 0.00 0.01 0.01 75 1032.4
20260503034404 62 313 3.0 10.0 0.00 0.01 0.01 74 1032.4
20260503033904 62 299 3.0 10.0 0.00 0.01 0.01 75 1032.5
20260503033404 62 322 4.0 8.0 0.00 0.01 0.01 74 1032.4
20260503032904 62 337 3.0 10.0 0.00 0.01 0.01 75 1032.4
20260503032404 62 338 5.0 9.0 0.00 0.01 0.01 74 1032.5
20260503031404 62 343 3.0 9.0 0.00 0.01 0.01 75 1032.5
20260503030904 62 323 3.0 9.0 0.00 0.01 0.01 75 1032.6
20260503030404 62 341 3.0 8.0 0.00 0.01 0.01 75 1032.7
20260503025904 62 336 5.0 10.0 0.00 0.01 0.01 75 1032.8
20260503025406 62 340 3.0 9.0 0.00 0.01 0.01 75 1032.8
20260503024904 63 343 5.0 10.0 0.00 0.01 0.01 74 1032.8
20260503024405 63 329 5.0 10.0 0.00 0.01 0.01 74 1032.9
20260503023905 63 327 3.0 7.0 0.00 0.01 0.01 74 1032.9
20260503023406 63 338 4.0 8.0 0.00 0.01 0.01 72 1032.9
20260503022904 63 356 3.0 9.0 0.00 0.01 0.01 73 1032.9
20260503022404 63 358 4.0 9.0 0.00 0.01 0.01 73 1033.0
20260503021904 64 342 4.0 9.0 0.00 0.01 0.01 74 1033.0
20260503021404 64 339 3.0 8.0 0.00 0.01 0.01 74 1033.0